Time,TemperatureF,DewpointF,PressureIn,WindDirection,WindDirectionDegrees,WindSpeedMPH,WindSpeedGustMPH,Humidity,HourlyPrecipIn,Conditions,Clouds,dailyrainin,SoftwareType,DateUTC
2013-04-05 00:01:00,46.6,28.9,-100.00,WNW,287,0.0,1.0,50,0.00,,,0.00,meteohub,2013-04-05 05:01:00,
2013-04-05 00:06:00,46.6,28.9,-100.00,WNW,287,0.0,1.0,50,0.00,,,0.00,meteohub,2013-04-05 05:06:00,
2013-04-05 00:11:00,46.2,28.6,-100.00,WNW,287,0.0,0.0,50,0.00,,,0.00,meteohub,2013-04-05 05:11:00,
2013-04-05 00:16:00,46.0,28.4,-100.00,WNW,287,0.0,0.0,50,0.00,,,0.00,meteohub,2013-04-05 05:16:00,
2013-04-05 00:21:00,46.0,28.4,-100.00,WNW,287,0.0,0.0,50,0.00,,,0.00,meteohub,2013-04-05 05:21:00,
2013-04-05 00:26:00,46.0,28.4,-100.00,WNW,287,0.0,0.0,50,0.00,,,0.00,meteohub,2013-04-05 05:26:00,
2013-04-05 00:31:00,46.0,28.9,-100.00,WNW,286,0.0,0.0,51,0.00,,,0.00,meteohub,2013-04-05 05:31:00,
2013-04-05 00:36:00,46.2,29.1,-100.00,WNW,286,0.0,4.0,51,0.00,,,0.00,meteohub,2013-04-05 05:36:00,
2013-04-05 00:41:00,46.8,29.7,-100.00,West,281,3.0,7.0,51,0.00,,,0.00,meteohub,2013-04-05 05:41:00,
2013-04-05 00:46:00,47.1,29.8,-100.00,West,280,0.0,7.0,51,0.00,,,0.00,meteohub,2013-04-05 05:46:00,
2013-04-05 00:51:00,46.9,29.3,-100.00,West,278,0.0,7.0,50,0.00,,,0.00,meteohub,2013-04-05 05:51:00,
2013-04-05 00:56:00,46.8,29.7,-100.00,West,277,0.0,4.0,51,0.00,,,0.00,meteohub,2013-04-05 05:56:00,
2013-04-05 01:01:00,46.6,29.8,-100.00,West,279,0.0,2.0,52,0.00,,,0.00,meteohub,2013-04-05 06:01:00,
2013-04-05 01:07:00,46.4,29.7,-100.00,West,280,0.0,2.0,52,0.00,,,0.00,meteohub,2013-04-05 06:07:00,
2013-04-05 01:12:00,46.6,29.8,-100.00,West,280,0.0,3.0,52,0.00,,,0.00,meteohub,2013-04-05 06:12:00,
2013-04-05 01:17:00,46.8,30.0,-100.00,WNW,300,3.0,3.0,52,0.00,,,0.00,meteohub,2013-04-05 06:17:00,
2013-04-05 01:22:00,46.8,30.0,-100.00,NW,306,0.0,5.0,52,0.00,,,0.00,meteohub,2013-04-05 06:22:00,
2013-04-05 01:27:00,46.8,30.0,-100.00,NW,306,0.0,6.0,52,0.00,,,0.00,meteohub,2013-04-05 06:27:00,
2013-04-05 01:32:00,46.6,30.4,-100.00,NW,306,0.0,6.0,53,0.00,,,0.00,meteohub,2013-04-05 06:32:00,
2013-04-05 01:37:00,46.2,30.6,-100.00,NW,306,0.0,4.0,54,0.00,,,0.00,meteohub,2013-04-05 06:37:00,
2013-04-05 01:42:00,46.0,30.4,-100.00,NW,319,0.0,0.0,54,0.00,,,0.00,meteohub,2013-04-05 06:42:00,
2013-04-05 01:47:00,46.0,30.7,-100.00,NW,321,0.0,3.0,55,0.00,,,0.00,meteohub,2013-04-05 06:47:00,
2013-04-05 01:52:00,46.0,30.7,-100.00,NW,321,0.0,3.0,55,0.00,,,0.00,meteohub,2013-04-05 06:52:00,
2013-04-05 01:57:00,46.0,31.3,-100.00,NW,321,0.0,3.0,56,0.00,,,0.00,meteohub,2013-04-05 06:57:00,
2013-04-05 02:02:00,46.0,31.3,-100.00,NW,321,0.0,1.0,56,0.00,,,0.00,meteohub,2013-04-05 07:02:00,
2013-04-05 02:07:00,45.9,31.5,-100.00,NW,321,0.0,1.0,57,0.00,,,0.00,meteohub,2013-04-05 07:07:00,
2013-04-05 02:12:00,45.7,31.8,-100.00,NW,320,0.0,1.0,58,0.00,,,0.00,meteohub,2013-04-05 07:12:00,
2013-04-05 02:17:00,45.5,31.6,-100.00,NW,322,0.0,1.0,58,0.00,,,0.00,meteohub,2013-04-05 07:17:00,
2013-04-05 02:22:00,45.3,31.5,-100.00,NW,322,0.0,4.0,58,0.00,,,0.00,meteohub,2013-04-05 07:22:00,
2013-04-05 02:27:00,45.1,31.3,-100.00,NW,322,0.0,4.0,58,0.00,,,0.00,meteohub,2013-04-05 07:27:00,
2013-04-05 02:32:00,45.0,31.1,-100.00,NW,323,3.0,4.0,58,0.00,,,0.00,meteohub,2013-04-05 07:32:00,
2013-04-05 02:37:00,45.0,31.5,-100.00,NW,323,0.0,3.0,59,0.00,,,0.00,meteohub,2013-04-05 07:37:00,
2013-04-05 02:42:00,44.8,31.8,-100.00,NW,325,2.0,5.0,60,0.00,,,0.00,meteohub,2013-04-05 07:42:00,
2013-04-05 04:24:00,42.6,35.6,-100.00,NW,322,1.0,3.0,76,0.00,,,0.00,meteohub,2013-04-05 09:24:00,
2013-04-05 04:31:00,42.4,35.4,-100.00,NW,321,0.0,3.0,76,0.00,,,0.00,meteohub,2013-04-05 09:31:00,
2013-04-05 04:36:00,42.4,35.8,-100.00,NNW,327,0.0,3.0,77,0.00,,,0.00,meteohub,2013-04-05 09:36:00,
2013-04-05 04:41:00,42.3,35.6,-100.00,NW,311,0.0,3.0,77,0.00,,,0.00,meteohub,2013-04-05 09:41:00,
2013-04-05 04:46:00,42.3,35.6,-100.00,NW,313,0.0,3.0,77,0.00,,,0.00,meteohub,2013-04-05 09:46:00,
2013-04-05 04:51:00,42.1,35.4,-100.00,NW,315,0.0,4.0,77,0.00,,,0.00,meteohub,2013-04-05 09:51:00,
2013-04-05 04:56:00,41.7,35.1,-100.00,NW,313,2.0,4.0,77,0.00,,,0.00,meteohub,2013-04-05 09:56:00,
2013-04-05 05:01:00,41.5,34.9,-100.00,NW,314,1.0,4.0,77,0.00,,,0.00,meteohub,2013-04-05 10:01:00,
2013-04-05 05:07:00,41.4,35.1,-100.00,NW,323,0.0,4.0,78,0.00,,,0.00,meteohub,2013-04-05 10:07:00,
2013-04-05 05:12:00,41.2,34.9,-100.00,NW,320,4.0,5.0,78,0.00,,,0.00,meteohub,2013-04-05 10:12:00,
2013-04-05 05:17:00,41.2,34.9,-100.00,NW,319,0.0,5.0,78,0.00,,,0.00,meteohub,2013-04-05 10:17:00,
2013-04-05 05:22:00,41.0,34.7,-100.00,NW,323,3.0,6.0,78,0.00,,,0.00,meteohub,2013-04-05 10:22:00,
2013-04-05 05:27:00,40.8,34.5,-100.00,NW,322,0.0,6.0,78,0.00,,,0.00,meteohub,2013-04-05 10:27:00,
2013-04-05 05:32:00,40.6,34.7,-100.00,NW,321,4.0,6.0,79,0.00,,,0.00,meteohub,2013-04-05 10:32:00,
2013-04-05 05:37:00,40.6,34.7,-100.00,NW,315,0.0,5.0,79,0.00,,,0.00,meteohub,2013-04-05 10:37:00,
2013-04-05 05:42:00,40.5,34.5,-100.00,NW,317,0.0,5.0,79,0.00,,,0.00,meteohub,2013-04-05 10:42:00,
2013-04-05 05:47:00,40.3,34.3,-100.00,NW,311,0.0,5.0,79,0.00,,,0.00,meteohub,2013-04-05 10:47:00,
2013-04-05 05:52:00,40.3,34.3,-100.00,NW,321,0.0,5.0,79,0.00,,,0.00,meteohub,2013-04-05 10:52:00,
2013-04-05 05:57:00,40.1,34.2,-100.00,NW,321,0.0,4.0,79,0.00,,,0.00,meteohub,2013-04-05 10:57:00,
2013-04-05 06:02:00,40.1,34.2,-100.00,NW,321,0.0,4.0,79,0.00,,,0.00,meteohub,2013-04-05 11:02:00,
2013-04-05 06:07:00,40.3,34.3,-100.00,NW,320,0.0,1.0,79,0.00,,,0.00,meteohub,2013-04-05 11:07:00,
2013-04-05 06:12:00,40.1,34.2,-100.00,NW,325,0.0,2.0,79,0.00,,,0.00,meteohub,2013-04-05 11:12:00,
2013-04-05 06:17:00,40.1,34.2,-100.00,NW,304,0.0,3.0,79,0.00,,,0.00,meteohub,2013-04-05 11:17:00,
2013-04-05 06:22:00,40.1,34.2,-100.00,NW,325,1.0,4.0,79,0.00,,,0.00,meteohub,2013-04-05 11:22:00,
2013-04-05 06:27:00,39.9,34.0,-100.00,NW,320,0.0,5.0,79,0.00,,,0.00,meteohub,2013-04-05 11:27:00,
2013-04-05 06:32:00,39.7,33.8,-100.00,NW,320,0.0,5.0,79,0.00,,,0.00,meteohub,2013-04-05 11:32:00,
2013-04-05 06:37:00,39.6,33.6,-100.00,NW,319,0.0,5.0,79,0.00,,,0.00,meteohub,2013-04-05 11:37:00,
2013-04-05 06:42:00,39.6,33.6,-100.00,NW,319,0.0,5.0,79,0.00,,,0.00,meteohub,2013-04-05 11:42:00,
2013-04-05 06:47:00,39.4,33.4,-100.00,NW,318,0.0,5.0,79,0.00,,,0.00,meteohub,2013-04-05 11:47:00,
2013-04-05 06:52:00,39.4,33.4,-100.00,WNW,302,0.0,5.0,79,0.00,,,0.00,meteohub,2013-04-05 11:52:00,
2013-04-05 06:57:00,39.4,33.4,-100.00,NW,304,0.0,1.0,79,0.00,,,0.00,meteohub,2013-04-05 11:57:00,
2013-04-05 07:02:00,39.4,33.4,-100.00,NW,313,0.0,1.0,79,0.00,,,0.00,meteohub,2013-04-05 12:02:00,
2013-04-05 07:07:00,39.6,33.6,-100.00,NNW,327,0.0,3.0,79,0.00,,,0.00,meteohub,2013-04-05 12:07:00,
2013-04-05 07:12:00,39.7,33.4,-100.00,NNW,340,0.0,3.0,78,0.00,,,0.00,meteohub,2013-04-05 12:12:00,
2013-04-05 07:17:00,39.9,33.6,-100.00,NNW,340,0.0,3.0,78,0.00,,,0.00,meteohub,2013-04-05 12:17:00,
2013-04-05 07:22:00,40.1,33.4,-100.00,NNW,342,0.0,3.0,77,0.00,,,0.00,meteohub,2013-04-05 12:22:00,
2013-04-05 07:27:00,40.5,33.8,-100.00,NNW,341,0.0,3.0,77,0.00,,,0.00,meteohub,2013-04-05 12:27:00,
2013-04-05 07:32:00,40.8,34.2,-100.00,NNW,331,0.0,1.0,77,0.00,,,0.00,meteohub,2013-04-05 12:32:00,
2013-04-05 07:37:00,41.4,34.3,-100.00,NW,312,0.0,4.0,76,0.00,,,0.00,meteohub,2013-04-05 12:37:00,
2013-04-05 07:42:00,41.7,34.3,-100.00,NW,310,0.0,4.0,75,0.00,,,0.00,meteohub,2013-04-05 12:42:00,
2013-04-05 07:47:00,42.3,34.9,-100.00,WNW,298,0.0,4.0,75,0.00,,,0.00,meteohub,2013-04-05 12:47:00,
2013-04-05 07:52:00,42.4,34.3,-100.00,NNW,346,0.0,4.0,73,0.00,,,0.00,meteohub,2013-04-05 12:52:00,
2013-04-05 07:57:00,42.8,34.7,-100.00,NNE,15,0.0,4.0,73,0.00,,,0.00,meteohub,2013-04-05 12:57:00,
2013-04-05 08:02:00,43.2,34.7,-100.00,NNE,19,0.0,5.0,72,0.00,,,0.00,meteohub,2013-04-05 13:02:00,
2013-04-05 08:07:00,43.3,34.5,-100.00,NE,51,0.0,7.0,71,0.00,,,0.00,meteohub,2013-04-05 13:07:00,
2013-04-05 08:12:00,43.7,34.9,-100.00,NW,326,0.0,7.0,71,0.00,,,0.00,meteohub,2013-04-05 13:12:00,
2013-04-05 08:17:00,43.9,34.3,-100.00,NE,38,0.0,9.0,69,0.00,,,0.00,meteohub,2013-04-05 13:17:00,
2013-04-05 08:22:00,44.1,34.5,-100.00,NE,44,3.0,9.0,69,0.00,,,0.00,meteohub,2013-04-05 13:22:00,
2013-04-05 08:27:00,44.6,35.1,-100.00,NE,45,2.0,9.0,69,0.00,,,0.00,meteohub,2013-04-05 13:27:00,
2013-04-05 08:32:00,45.0,34.7,-100.00,NE,46,0.0,8.0,67,0.00,,,0.00,meteohub,2013-04-05 13:32:00,
2013-04-05 08:37:00,45.5,34.3,-100.00,NE,48,2.0,6.0,65,0.00,,,0.00,meteohub,2013-04-05 13:37:00,
2013-04-05 08:42:00,45.9,34.7,-100.00,NE,34,1.0,10.0,65,0.00,,,0.00,meteohub,2013-04-05 13:42:00,
2013-04-05 08:47:00,46.6,35.1,-100.00,NNE,32,0.0,10.0,64,0.00,,,0.00,meteohub,2013-04-05 13:47:00,
2013-04-05 08:53:00,46.9,34.2,-100.00,NE,43,0.0,10.0,61,0.00,,,0.00,meteohub,2013-04-05 13:53:00,
2013-04-05 08:58:00,47.1,34.3,-100.00,NE,41,2.0,8.0,61,0.00,,,0.00,meteohub,2013-04-05 13:58:00,
2013-04-05 09:03:00,47.5,33.8,-100.00,NE,38,0.0,10.0,59,0.00,,,0.00,meteohub,2013-04-05 14:03:00,
2013-04-05 09:08:00,47.8,33.8,-100.00,NE,39,4.0,10.0,58,0.00,,,0.00,meteohub,2013-04-05 14:08:00,
2013-04-05 09:13:00,48.4,33.8,-100.00,NE,43,0.0,10.0,57,0.00,,,0.00,meteohub,2013-04-05 14:13:00,
2013-04-05 09:18:00,48.7,34.7,-100.00,NE,52,3.0,10.0,58,0.00,,,0.00,meteohub,2013-04-05 14:18:00,
2013-04-05 09:25:00,48.7,33.8,-100.00,ENE,71,5.0,9.0,56,0.00,,,0.00,meteohub,2013-04-05 14:25:00,
2013-04-05 09:30:00,49.5,34.3,-100.00,ENE,65,0.0,10.0,56,0.00,,,0.00,meteohub,2013-04-05 14:30:00,
2013-04-05 09:35:00,49.6,33.6,-100.00,NE,51,4.0,10.0,54,0.00,,,0.00,meteohub,2013-04-05 14:35:00,
2013-04-05 09:40:00,49.8,34.3,-100.00,ENE,59,0.0,7.0,55,0.00,,,0.00,meteohub,2013-04-05 14:40:00,
2013-04-05 09:45:00,50.4,34.9,-100.00,ENE,66,0.0,7.0,55,0.00,,,0.00,meteohub,2013-04-05 14:45:00,
2013-04-05 09:50:00,50.5,34.0,-100.00,NNE,33,0.0,11.0,53,0.00,,,0.00,meteohub,2013-04-05 14:50:00,
2013-04-05 09:55:00,50.9,34.0,-100.00,NE,41,0.0,11.0,52,0.00,,,0.00,meteohub,2013-04-05 14:55:00,
2013-04-05 10:00:00,51.3,34.2,-100.00,ENE,75,5.0,11.0,52,0.00,,,0.00,meteohub,2013-04-05 15:00:00,
2013-04-05 10:05:00,51.6,34.5,-100.00,ENE,66,0.0,7.0,52,0.00,,,0.00,meteohub,2013-04-05 15:05:00,
2013-04-05 10:10:00,51.4,34.3,-100.00,East,94,3.0,7.0,52,0.00,,,0.00,meteohub,2013-04-05 15:10:00,
2013-04-05 10:15:00,51.3,34.7,-100.00,ENE,71,1.0,10.0,53,0.00,,,0.00,meteohub,2013-04-05 15:15:00,
2013-04-05 10:20:00,51.6,35.1,-100.00,ENE,71,0.0,10.0,53,0.00,,,0.00,meteohub,2013-04-05 15:20:00,
2013-04-05 10:25:00,52.5,34.9,-100.00,ENE,71,0.0,10.0,51,0.00,,,0.00,meteohub,2013-04-05 15:25:00,
2013-04-05 10:30:00,53.1,34.9,-100.00,East,92,3.0,5.0,50,0.00,,,0.00,meteohub,2013-04-05 15:30:00,
2013-04-05 10:35:00,53.2,35.1,-100.00,East,95,0.0,5.0,50,0.00,,,0.00,meteohub,2013-04-05 15:35:00,
2013-04-05 10:40:00,53.6,35.4,-100.00,East,80,0.0,5.0,50,0.00,,,0.00,meteohub,2013-04-05 15:40:00,
2013-04-05 10:45:00,54.0,35.2,-100.00,East,79,0.0,5.0,49,0.00,,,0.00,meteohub,2013-04-05 15:45:00,
2013-04-05 10:50:00,53.4,35.2,-100.00,East,93,0.0,5.0,50,0.00,,,0.00,meteohub,2013-04-05 15:50:00,
2013-04-05 10:55:00,53.1,34.9,-100.00,East,94,0.0,6.0,50,0.00,,,0.00,meteohub,2013-04-05 15:55:00,
2013-04-05 11:00:00,54.3,36.1,-100.00,ENE,68,0.0,6.0,50,0.00,,,0.00,meteohub,2013-04-05 16:00:00,
2013-04-05 11:05:00,54.7,35.4,-100.00,ENE,60,2.0,8.0,48,0.00,,,0.00,meteohub,2013-04-05 16:05:00,
2013-04-05 11:10:00,55.0,35.2,-100.00,East,79,0.0,8.0,47,0.00,,,0.00,meteohub,2013-04-05 16:10:00,
2013-04-05 11:15:00,55.6,35.1,-100.00,East,95,0.0,8.0,46,0.00,,,0.00,meteohub,2013-04-05 16:15:00,
2013-04-05 11:20:00,55.9,35.4,-100.00,ENE,69,0.0,5.0,46,0.00,,,0.00,meteohub,2013-04-05 16:20:00,
2013-04-05 11:25:00,55.9,34.3,-100.00,NE,49,0.0,5.0,44,0.00,,,0.00,meteohub,2013-04-05 16:25:00,
2013-04-05 11:30:00,56.1,33.3,-100.00,NE,53,0.0,6.0,42,0.00,,,0.00,meteohub,2013-04-05 16:30:00,
2013-04-05 11:35:00,56.5,33.6,-100.00,East,80,2.0,7.0,42,0.00,,,0.00,meteohub,2013-04-05 16:35:00,
2013-04-05 11:40:00,56.5,34.3,-100.00,East,90,0.0,7.0,43,0.00,,,0.00,meteohub,2013-04-05 16:40:00,
2013-04-05 11:45:00,57.0,32.9,-100.00,East,91,0.0,7.0,40,0.00,,,0.00,meteohub,2013-04-05 16:45:00,
2013-04-05 11:50:00,57.4,33.8,-100.00,East,96,0.0,6.0,41,0.00,,,0.00,meteohub,2013-04-05 16:50:00,
2013-04-05 11:55:00,57.4,34.5,-100.00,East,101,1.0,7.0,42,0.00,,,0.00,meteohub,2013-04-05 16:55:00,
2013-04-05 12:00:00,57.0,34.2,-100.00,East,101,0.0,7.0,42,0.00,,,0.00,meteohub,2013-04-05 17:00:00,
2013-04-05 12:05:00,57.6,34.0,-100.00,ESE,103,0.0,5.0,41,0.00,,,0.00,meteohub,2013-04-05 17:05:00,
2013-04-05 12:10:00,58.6,35.1,-100.00,East,95,0.0,5.0,41,0.00,,,0.00,meteohub,2013-04-05 17:10:00,
2013-04-05 12:15:00,60.3,34.5,-100.00,East,95,0.0,5.0,38,0.00,,,0.00,meteohub,2013-04-05 17:15:00,
2013-04-05 12:21:00,61.5,36.3,-100.00,WNW,294,0.0,1.0,39,0.00,,,0.00,meteohub,2013-04-05 17:21:00,
2013-04-05 12:26:00,61.5,35.1,-100.00,WNW,294,0.0,1.0,37,0.00,,,0.00,meteohub,2013-04-05 17:26:00,
2013-04-05 12:31:00,60.4,33.4,-100.00,NNE,13,0.0,1.0,36,0.00,,,0.00,meteohub,2013-04-05 17:31:00,
2013-04-05 12:36:00,61.2,34.7,-100.00,NNE,25,0.0,1.0,37,0.00,,,0.00,meteohub,2013-04-05 17:36:00,
2013-04-05 12:41:00,60.8,34.3,-100.00,NW,312,0.0,1.0,37,0.00,,,0.00,meteohub,2013-04-05 17:41:00,
2013-04-05 12:46:00,60.4,33.4,-100.00,ESE,105,2.0,3.0,36,0.00,,,0.00,meteohub,2013-04-05 17:46:00,
2013-04-05 12:51:00,60.6,33.4,-100.00,ESE,104,0.0,5.0,36,0.00,,,0.00,meteohub,2013-04-05 17:51:00,
2013-04-05 12:56:00,62.8,34.0,-100.00,NW,305,0.0,5.0,34,0.00,,,0.00,meteohub,2013-04-05 17:56:00,
2013-04-05 13:01:00,64.2,35.2,-100.00,SW,236,0.0,5.0,34,0.00,,,0.00,meteohub,2013-04-05 18:01:00,
2013-04-05 13:06:00,64.2,35.2,-100.00,South,187,0.0,2.0,34,0.00,,,0.00,meteohub,2013-04-05 18:06:00,
2013-04-05 13:11:00,63.5,35.4,-100.00,SW,218,5.0,5.0,35,0.00,,,0.00,meteohub,2013-04-05 18:11:00,
2013-04-05 13:16:00,63.3,34.5,-100.00,SSE,163,0.0,8.0,34,0.00,,,0.00,meteohub,2013-04-05 18:16:00,
2013-04-05 13:21:00,63.0,34.9,-100.00,South,184,0.0,8.0,35,0.00,,,0.00,meteohub,2013-04-05 18:21:00,
2013-04-05 13:26:00,63.7,34.7,-100.00,SSW,210,2.0,8.0,34,0.00,,,0.00,meteohub,2013-04-05 18:26:00,
2013-04-05 13:31:00,62.8,33.3,-100.00,SE,126,3.0,7.0,33,0.00,,,0.00,meteohub,2013-04-05 18:31:00,
2013-04-05 13:36:00,62.6,33.1,-100.00,SE,126,0.0,7.0,33,0.00,,,0.00,meteohub,2013-04-05 18:36:00,
2013-04-05 13:41:00,62.8,31.6,-100.00,SE,125,1.0,6.0,31,0.00,,,0.00,meteohub,2013-04-05 18:41:00,
2013-04-05 13:46:00,62.1,31.8,-100.00,SE,124,0.0,5.0,32,0.00,,,0.00,meteohub,2013-04-05 18:46:00,
2013-04-05 13:51:00,61.3,32.7,-100.00,ENE,76,0.0,5.0,34,0.00,,,0.00,meteohub,2013-04-05 18:51:00,
2013-04-05 13:56:00,62.2,32.7,-100.00,ENE,76,0.0,5.0,33,0.00,,,0.00,meteohub,2013-04-05 18:56:00,
2013-04-05 14:01:00,62.6,33.8,-100.00,ENE,76,0.0,5.0,34,0.00,,,0.00,meteohub,2013-04-05 19:01:00,
2013-04-05 14:06:00,63.9,34.2,-100.00,SW,222,2.0,6.0,33,0.00,,,0.00,meteohub,2013-04-05 19:06:00,
2013-04-05 14:11:00,64.9,34.3,-100.00,SW,220,0.0,6.0,32,0.00,,,0.00,meteohub,2013-04-05 19:11:00,
2013-04-05 14:16:00,64.6,33.3,-100.00,SE,134,0.0,6.0,31,0.00,,,0.00,meteohub,2013-04-05 19:16:00,
2013-04-05 14:21:00,64.6,34.0,-100.00,SE,134,0.0,5.0,32,0.00,,,0.00,meteohub,2013-04-05 19:21:00,
2013-04-05 14:26:00,65.1,32.9,-100.00,SSW,211,0.0,5.0,30,0.00,,,0.00,meteohub,2013-04-05 19:26:00,
2013-04-05 14:31:00,64.4,32.4,-100.00,SSE,163,0.0,6.0,30,0.00,,,0.00,meteohub,2013-04-05 19:31:00,
2013-04-05 14:36:00,63.1,32.7,-100.00,SW,215,0.0,6.0,32,0.00,,,0.00,meteohub,2013-04-05 19:36:00,
2013-04-05 14:41:00,63.1,32.0,-100.00,SSW,209,0.0,6.0,31,0.00,,,0.00,meteohub,2013-04-05 19:41:00,
2013-04-05 14:46:00,62.8,33.3,-100.00,SSE,155,2.0,6.0,33,0.00,,,0.00,meteohub,2013-04-05 19:46:00,
2013-04-05 14:51:00,62.4,32.2,-100.00,SSE,152,0.0,3.0,32,0.00,,,0.00,meteohub,2013-04-05 19:51:00,
2013-04-05 14:56:00,63.0,33.4,-100.00,SSE,155,0.0,3.0,33,0.00,,,0.00,meteohub,2013-04-05 19:56:00,
2013-04-05 15:01:00,64.0,32.7,-100.00,South,187,1.0,3.0,31,0.00,,,0.00,meteohub,2013-04-05 20:01:00,
2013-04-05 15:06:00,64.8,33.4,-100.00,South,169,0.0,5.0,31,0.00,,,0.00,meteohub,2013-04-05 20:06:00,
2013-04-05 15:11:00,65.1,32.9,-100.00,South,188,1.0,6.0,30,0.00,,,0.00,meteohub,2013-04-05 20:11:00,
2013-04-05 15:16:00,64.9,32.7,-100.00,SSE,161,0.0,6.0,30,0.00,,,0.00,meteohub,2013-04-05 20:16:00,
2013-04-05 15:21:00,65.1,32.9,-100.00,South,190,0.0,6.0,30,0.00,,,0.00,meteohub,2013-04-05 20:21:00,
2013-04-05 15:26:00,66.2,33.8,-100.00,West,277,0.0,5.0,30,0.00,,,0.00,meteohub,2013-04-05 20:26:00,
2013-04-05 15:31:00,66.7,35.1,-100.00,SE,146,0.0,4.0,31,0.00,,,0.00,meteohub,2013-04-05 20:31:00,
2013-04-05 15:36:00,65.8,33.6,-100.00,South,180,0.0,4.0,30,0.00,,,0.00,meteohub,2013-04-05 20:36:00,
2013-04-05 15:41:00,65.8,34.3,-100.00,South,181,0.0,4.0,31,0.00,,,0.00,meteohub,2013-04-05 20:41:00,
2013-04-05 15:46:00,65.8,34.3,-100.00,ESE,121,0.0,4.0,31,0.00,,,0.00,meteohub,2013-04-05 20:46:00,
2013-04-05 15:51:00,64.6,34.0,-100.00,East,101,4.0,5.0,32,0.00,,,0.00,meteohub,2013-04-05 20:51:00,
2013-04-05 15:56:00,64.6,35.6,-100.00,South,180,2.0,6.0,34,0.00,,,0.00,meteohub,2013-04-05 20:56:00,
2013-04-05 16:01:00,65.7,35.8,-100.00,South,180,2.0,6.0,33,0.00,,,0.00,meteohub,2013-04-05 21:01:00,
2013-04-05 16:06:00,66.7,36.0,-100.00,South,180,0.0,5.0,32,0.00,,,0.00,meteohub,2013-04-05 21:06:00,
2013-04-05 16:11:00,67.5,36.5,-100.00,SSW,199,5.0,5.0,32,0.00,,,0.00,meteohub,2013-04-05 21:11:00,
2013-04-05 16:16:00,66.4,35.6,-100.00,SSW,196,0.0,6.0,32,0.00,,,0.00,meteohub,2013-04-05 21:16:00,
2013-04-05 16:21:00,65.7,35.8,-100.00,SSW,198,1.0,7.0,33,0.00,,,0.00,meteohub,2013-04-05 21:21:00,
2013-04-05 16:26:00,65.7,35.8,-100.00,SE,137,2.0,10.0,33,0.00,,,0.00,meteohub,2013-04-05 21:26:00,
2013-04-05 16:31:00,64.9,35.1,-100.00,South,174,0.0,10.0,33,0.00,,,0.00,meteohub,2013-04-05 21:31:00,
2013-04-05 16:37:00,64.9,35.1,-100.00,SE,132,2.0,6.0,33,0.00,,,0.00,meteohub,2013-04-05 21:37:00,
2013-04-05 16:42:00,64.8,35.1,-100.00,SE,142,0.0,6.0,33,0.00,,,0.00,meteohub,2013-04-05 21:42:00,
2013-04-05 16:47:00,64.9,35.1,-100.00,SE,140,0.0,5.0,33,0.00,,,0.00,meteohub,2013-04-05 21:47:00,
2013-04-05 16:52:00,64.9,35.1,-100.00,SE,140,0.0,4.0,33,0.00,,,0.00,meteohub,2013-04-05 21:52:00,
2013-04-05 16:57:00,65.3,35.4,-100.00,SE,140,0.0,4.0,33,0.00,,,0.00,meteohub,2013-04-05 21:57:00,
2013-04-05 17:02:00,65.3,34.7,-100.00,ESE,123,0.0,6.0,32,0.00,,,0.00,meteohub,2013-04-05 22:02:00,
2013-04-05 17:07:00,64.9,35.1,-100.00,SW,217,0.0,6.0,33,0.00,,,0.00,meteohub,2013-04-05 22:07:00,
2013-04-05 17:12:00,64.9,34.3,-100.00,SW,217,1.0,6.0,32,0.00,,,0.00,meteohub,2013-04-05 22:12:00,
2013-04-05 17:17:00,65.1,34.5,-100.00,SW,215,0.0,6.0,32,0.00,,,0.00,meteohub,2013-04-05 22:17:00,
2013-04-05 17:22:00,65.1,34.5,-100.00,SW,214,0.0,6.0,32,0.00,,,0.00,meteohub,2013-04-05 22:22:00,
2013-04-05 17:27:00,64.0,35.1,-100.00,SE,126,0.0,4.0,34,0.00,,,0.00,meteohub,2013-04-05 22:27:00,
2013-04-05 17:32:00,63.7,34.7,-100.00,ESE,119,5.0,5.0,34,0.00,,,0.00,meteohub,2013-04-05 22:32:00,
2013-04-05 17:37:00,63.9,34.9,-100.00,ESE,121,0.0,5.0,34,0.00,,,0.00,meteohub,2013-04-05 22:37:00,
2013-04-05 17:42:00,63.9,34.9,-100.00,ESE,121,0.0,5.0,34,0.00,,,0.00,meteohub,2013-04-05 22:42:00,
2013-04-05 17:47:00,63.7,34.7,-100.00,East,92,0.0,5.0,34,0.00,,,0.00,meteohub,2013-04-05 22:47:00,
2013-04-05 17:52:00,63.5,34.7,-100.00,East,94,0.0,4.0,34,0.00,,,0.00,meteohub,2013-04-05 22:52:00,
2013-04-05 17:57:00,63.5,34.7,-100.00,ESE,115,0.0,4.0,34,0.00,,,0.00,meteohub,2013-04-05 22:57:00,
2013-04-05 18:02:00,63.7,34.7,-100.00,ESE,114,0.0,5.0,34,0.00,,,0.00,meteohub,2013-04-05 23:02:00,
2013-04-05 18:07:00,63.3,35.2,-100.00,ESE,117,0.0,5.0,35,0.00,,,0.00,meteohub,2013-04-05 23:07:00,
2013-04-05 18:12:00,62.8,34.7,-100.00,ESE,118,0.0,5.0,35,0.00,,,0.00,meteohub,2013-04-05 23:12:00,
2013-04-05 18:17:00,62.8,34.7,-100.00,ESE,118,0.0,5.0,35,0.00,,,0.00,meteohub,2013-04-05 23:17:00,
2013-04-05 18:22:00,62.6,34.5,-100.00,NE,56,0.0,5.0,35,0.00,,,0.00,meteohub,2013-04-05 23:22:00,
2013-04-05 18:27:00,62.4,35.1,-100.00,ENE,57,2.0,5.0,36,0.00,,,0.00,meteohub,2013-04-05 23:27:00,
2013-04-05 18:32:00,62.1,34.9,-100.00,ENE,73,0.0,5.0,36,0.00,,,0.00,meteohub,2013-04-05 23:32:00,
2013-04-05 18:37:00,61.5,35.6,-100.00,ENE,72,0.0,3.0,38,0.00,,,0.00,meteohub,2013-04-05 23:37:00,
2013-04-05 18:42:00,61.2,36.0,-100.00,ENE,73,0.0,3.0,39,0.00,,,0.00,meteohub,2013-04-05 23:42:00,
2013-04-05 18:47:00,60.4,35.4,-100.00,ENE,72,0.0,3.0,39,0.00,,,0.00,meteohub,2013-04-05 23:47:00,
2013-04-05 18:52:00,60.3,35.8,-100.00,ENE,73,0.0,2.0,40,0.00,,,0.00,meteohub,2013-04-05 23:52:00,
2013-04-05 18:57:00,59.7,35.4,-100.00,ENE,73,0.0,2.0,40,0.00,,,0.00,meteohub,2013-04-05 23:57:00,
2013-04-05 19:02:00,59.5,35.2,-100.00,ENE,72,0.0,2.0,40,0.00,,,0.00,meteohub,2013-04-06 00:02:00,
2013-04-05 19:07:00,59.4,35.1,-100.00,ENE,73,0.0,2.0,40,0.00,,,0.00,meteohub,2013-04-06 00:07:00,
2013-04-05 19:12:00,59.4,35.1,-100.00,ENE,73,0.0,0.0,40,0.00,,,0.00,meteohub,2013-04-06 00:12:00,
2013-04-05 19:17:00,59.5,35.2,-100.00,ENE,72,0.0,1.0,40,0.00,,,0.00,meteohub,2013-04-06 00:17:00,
2013-04-05 19:22:00,59.2,34.9,-100.00,ENE,73,0.0,1.0,40,0.00,,,0.00,meteohub,2013-04-06 00:22:00,
2013-04-05 19:27:00,59.0,35.4,-100.00,ENE,73,0.0,0.0,41,0.00,,,0.00,meteohub,2013-04-06 00:27:00,
2013-04-05 19:32:00,58.6,35.1,-100.00,ENE,73,0.0,0.0,41,0.00,,,0.00,meteohub,2013-04-06 00:32:00,
2013-04-05 19:37:00,58.5,34.9,-100.00,ENE,72,0.0,0.0,41,0.00,,,0.00,meteohub,2013-04-06 00:37:00,
2013-04-05 19:42:00,57.9,34.9,-100.00,ENE,73,0.0,0.0,42,0.00,,,0.00,meteohub,2013-04-06 00:42:00,
2013-04-05 19:47:00,57.7,35.4,-100.00,ENE,72,0.0,3.0,43,0.00,,,0.00,meteohub,2013-04-06 00:47:00,
2013-04-05 19:52:00,57.7,35.4,-100.00,East,81,0.0,4.0,43,0.00,,,0.00,meteohub,2013-04-06 00:52:00,
2013-04-05 19:57:00,57.6,35.2,-100.00,East,86,0.0,4.0,43,0.00,,,0.00,meteohub,2013-04-06 00:57:00,
2013-04-05 20:02:00,57.4,35.6,-100.00,East,88,0.0,4.0,44,0.00,,,0.00,meteohub,2013-04-06 01:02:00,
2013-04-05 20:07:00,57.4,36.1,-100.00,ENE,71,0.0,4.0,45,0.00,,,0.00,meteohub,2013-04-06 01:07:00,
2013-04-05 20:12:00,57.4,36.1,-100.00,East,98,0.0,7.0,45,0.00,,,0.00,meteohub,2013-04-06 01:12:00,
2013-04-05 20:17:00,57.0,36.5,-100.00,ESE,111,0.0,7.0,46,0.00,,,0.00,meteohub,2013-04-06 01:17:00,
2013-04-05 20:22:00,57.0,36.5,-100.00,ESE,115,1.0,9.0,46,0.00,,,0.00,meteohub,2013-04-06 01:22:00,
2013-04-05 20:27:00,57.0,36.5,-100.00,ESE,109,1.0,9.0,46,0.00,,,0.00,meteohub,2013-04-06 01:27:00,
2013-04-05 20:32:00,57.0,36.5,-100.00,ESE,110,0.0,9.0,46,0.00,,,0.00,meteohub,2013-04-06 01:32:00,
2013-04-05 20:37:00,57.0,36.5,-100.00,ESE,110,0.0,5.0,46,0.00,,,0.00,meteohub,2013-04-06 01:37:00,
2013-04-05 20:42:00,57.0,36.0,-100.00,ESE,119,0.0,6.0,45,0.00,,,0.00,meteohub,2013-04-06 01:42:00,
2013-04-05 20:47:00,57.0,36.5,-100.00,East,96,0.0,6.0,46,0.00,,,0.00,meteohub,2013-04-06 01:47:00,
2013-04-05 20:52:00,57.0,36.5,-100.00,ESE,109,3.0,6.0,46,0.00,,,0.00,meteohub,2013-04-06 01:52:00,
2013-04-05 20:57:00,56.8,36.3,-100.00,ESE,112,0.0,4.0,46,0.00,,,0.00,meteohub,2013-04-06 01:57:00,
2013-04-05 21:02:00,56.8,36.3,-100.00,ESE,119,2.0,4.0,46,0.00,,,0.00,meteohub,2013-04-06 02:02:00,
2013-04-05 21:07:00,56.8,36.3,-100.00,ESE,107,0.0,5.0,46,0.00,,,0.00,meteohub,2013-04-06 02:07:00,
2013-04-05 21:12:00,56.7,36.1,-100.00,ESE,103,0.0,5.0,46,0.00,,,0.00,meteohub,2013-04-06 02:12:00,
2013-04-05 21:17:00,56.5,36.0,-100.00,ESE,111,0.0,5.0,46,0.00,,,0.00,meteohub,2013-04-06 02:17:00,
2013-04-05 21:22:00,56.5,36.0,-100.00,ESE,119,0.0,8.0,46,0.00,,,0.00,meteohub,2013-04-06 02:22:00,
2013-04-05 21:27:00,56.3,36.3,-100.00,ESE,117,2.0,8.0,47,0.00,,,0.00,meteohub,2013-04-06 02:27:00,
2013-04-05 21:32:00,56.3,36.3,-100.00,ESE,117,0.0,8.0,47,0.00,,,0.00,meteohub,2013-04-06 02:32:00,
2013-04-05 21:37:00,56.1,36.1,-100.00,ESE,111,2.0,11.0,47,0.00,,,0.00,meteohub,2013-04-06 02:37:00,
2013-04-05 21:43:00,55.9,36.0,-100.00,SE,130,5.0,11.0,47,0.00,,,0.00,meteohub,2013-04-06 02:43:00,
2013-04-05 21:48:00,55.9,36.5,-100.00,ESE,107,5.0,11.0,48,0.00,,,0.00,meteohub,2013-04-06 02:48:00,
2013-04-05 21:53:00,55.8,36.3,-100.00,ESE,113,0.0,7.0,48,0.00,,,0.00,meteohub,2013-04-06 02:53:00,
2013-04-05 21:58:00,55.8,36.3,-100.00,ESE,122,1.0,9.0,48,0.00,,,0.00,meteohub,2013-04-06 02:58:00,
2013-04-05 22:03:00,55.8,36.3,-100.00,SE,128,4.0,9.0,48,0.00,,,0.00,meteohub,2013-04-06 03:03:00,
2013-04-05 22:08:00,55.6,36.1,-100.00,ESE,111,4.0,7.0,48,0.00,,,0.00,meteohub,2013-04-06 03:08:00,
2013-04-05 22:13:00,55.6,36.1,-100.00,ESE,107,5.0,10.0,48,0.00,,,0.00,meteohub,2013-04-06 03:13:00,
2013-04-05 22:18:00,55.6,36.1,-100.00,ESE,114,1.0,10.0,48,0.00,,,0.00,meteohub,2013-04-06 03:18:00,
2013-04-05 22:23:00,55.6,36.7,-100.00,SE,131,0.0,11.0,49,0.00,,,0.00,meteohub,2013-04-06 03:23:00,
2013-04-05 22:28:00,55.4,36.5,-100.00,ESE,112,0.0,11.0,49,0.00,,,0.00,meteohub,2013-04-06 03:28:00,
2013-04-05 22:33:00,55.2,36.3,-100.00,SE,129,3.0,9.0,49,0.00,,,0.00,meteohub,2013-04-06 03:33:00,
2013-04-05 22:38:00,55.4,36.5,-100.00,ESE,123,0.0,7.0,49,0.00,,,0.00,meteohub,2013-04-06 03:38:00,
2013-04-05 22:43:00,55.4,36.5,-100.00,ESE,116,5.0,10.0,49,0.00,,,0.00,meteohub,2013-04-06 03:43:00,
2013-04-05 22:48:00,55.2,36.9,-100.00,ESE,111,4.0,10.0,50,0.00,,,0.00,meteohub,2013-04-06 03:48:00,
2013-04-05 22:53:00,55.2,36.9,-100.00,ESE,123,0.0,11.0,50,0.00,,,0.00,meteohub,2013-04-06 03:53:00,
2013-04-05 22:58:00,55.2,36.9,-100.00,East,101,0.0,13.0,50,0.00,,,0.00,meteohub,2013-04-06 03:58:00,
2013-04-05 23:00:00,55.2,36.9,-100.00,ESE,122,1.0,13.0,50,0.00,,,0.00,meteohub,2013-04-06 04:00:00,
2013-04-05 23:05:00,55.0,36.7,-100.00,ESE,122,5.0,13.0,50,0.00,,,0.00,meteohub,2013-04-06 04:05:00,
2013-04-05 23:10:00,55.0,37.2,-100.00,SE,130,0.0,13.0,51,0.00,,,0.00,meteohub,2013-04-06 04:10:00,
2013-04-05 23:14:00,55.0,37.2,-100.00,ESE,118,5.0,13.0,51,0.00,,,0.00,meteohub,2013-04-06 04:14:00,
2013-04-05 23:16:00,55.0,37.2,-100.00,ESE,114,5.0,13.0,51,0.00,,,0.00,meteohub,2013-04-06 04:16:00,
2013-04-05 23:21:00,55.0,37.2,-100.00,SE,126,2.0,11.0,51,0.00,,,0.00,meteohub,2013-04-06 04:21:00,
2013-04-05 23:26:00,55.0,37.2,-100.00,ESE,121,3.0,14.0,51,0.00,,,0.00,meteohub,2013-04-06 04:26:00,
2013-04-05 23:31:00,55.2,37.4,-100.00,East,101,0.0,14.0,51,0.00,,,0.00,meteohub,2013-04-06 04:31:00,
2013-04-05 23:36:00,55.0,37.2,-100.00,SE,134,3.0,12.0,51,0.00,,,0.00,meteohub,2013-04-06 04:36:00,
2013-04-05 23:41:00,55.0,37.2,-100.00,ESE,115,2.0,12.0,51,0.00,,,0.00,meteohub,2013-04-06 04:41:00,
2013-04-05 23:46:00,55.0,37.2,-100.00,ESE,110,7.0,12.0,51,0.00,,,0.00,meteohub,2013-04-06 04:46:00,
2013-04-05 23:51:00,55.0,37.8,-100.00,SE,134,8.0,12.0,52,0.00,,,0.00,meteohub,2013-04-06 04:51:00,
2013-04-05 23:56:00,55.0,37.2,-100.00,ESE,122,4.0,14.0,51,0.00,,,0.00,meteohub,2013-04-06 04:56:00,